Location: R�serve Fauniques des Laurentides
(47.3100°N, 71.1900°W)
Time: 18:31:49
(UTC-04:00)

Cosmos 1674 - Visible Passes

Search period start: 28 July 2014 00:00
Search period end: 07 August 2014 00:00
Orbit: 516 x 543 km, 82.5° (Epoch: 28 July)

Date Brightness Start Highest point End Pass type
(mag) Time Alt. Az. Time Alt. Az. Time Alt. Az.
28 Jul 2.8 04:21:48 10° N 04:25:43 81° E 04:29:33 10° SSE visible
29 Jul 2.9 04:11:08 10° N 04:15:02 75° E 04:18:51 10° SSE visible
30 Jul 3.0 04:00:28 10° N 04:04:21 69° E 04:08:10 10° SSE visible
31 Jul 3.1 03:49:48 10° N 03:53:39 64° E 03:57:27 10° SSE visible
01 Aug 3.3 03:39:07 10° N 03:42:58 59° ENE 03:46:44 10° SSE visible
02 Aug 3.4 03:28:27 10° N 03:32:16 54° ENE 03:36:01 10° SSE visible
03 Aug 3.5 03:17:47 10° N 03:21:33 50° ENE 03:25:13 10° SSE visible
04 Aug 3.6 03:07:06 10° N 03:10:51 46° ENE 03:13:54 14° SSE visible
04 Aug 4.6 04:44:19 10° NW 04:46:26 14° W 04:48:32 10° WSW visible
05 Aug 3.8 02:56:26 10° N 03:00:08 43° ENE 03:02:38 18° SE visible
05 Aug 4.5 04:33:28 10° NW 04:35:46 15° W 04:37:53 11° WSW visible
06 Aug 3.9 02:45:46 10° N 02:49:25 40° ENE 02:51:26 22° SE visible
06 Aug 4.4 04:22:38 10° NW 04:25:05 16° W 04:26:41 13° WSW visible
